{"data":{"norad_id":60303,"epoch":"2026-09-21T00:47:55.126752Z","epoch_age_seconds":139519,"freshness":"FRESH","line1":"1 60303U 24133C   26264.03327693 -.00000375  00000+0  17565-5 0  9992","line2":"2 60303  53.1579 263.3501 0000883  76.9034 283.2083 15.69706822124494","mean_motion":15.69706822,"eccentricity":8.83e-5,"inclination_deg":53.1579,"raan_deg":263.3501,"arg_perigee_deg":76.9034,"mean_anomaly_deg":283.2083,"bstar":1.7565e-6,"rev_number":12449,"period_min":91.736875945106,"perigee_km":359.14089048247,"apogee_km":360.33079882683,"semimajor_km":6737.8728446547,"source":"CELESTRAK","updated_at":"2026-09-22T09:00:49.196815Z"}}